Date String (YYYY-MM-DD hh:mm:ss) UTC,Instrument flags,Ambient pressure (hPa),Sample flow (lpm),Bypass flow (lpm),Sample temperature (°C),Ambient temperature (°C),ASC tube jacket temperature (°C),LED temperature (°C),Box temperature (°C),Sample RH (%),Span deviation,Mass concentration (μg/m³),Mass concentration (μg/m³),Mass concentration (μg/m³)
DateTimeUTC,F1_M11,P_M11,Q1_M11,Q2_M11,T1_M11,T2_M11,T3_M11,T4_M11,T5_M11,U1_M11,ZSPAN_M11,X0_M11,X2_M11,X1_M11
2022-04-20 12:00:00,,0816.8,5.01,0.00,27.6,26.8,00.0,36.6,29.5,11.4,0000.0,0031.97,0009.52,0003.68
2022-04-20 12:01:00,,0816.7,5.00,0.00,27.7,26.8,00.0,36.6,29.5,11.5,0000.0,0032.18,0009.49,0003.68
2022-04-20 12:02:00,,0816.8,4.99,0.00,27.7,26.8,00.0,36.6,29.5,11.5,0000.0,0031.75,0009.46,0003.67
2022-04-20 12:03:00,,0817.1,5.00,0.00,27.7,26.8,00.0,36.6,29.5,11.5,0000.0,0031.18,0009.40,0003.65
2022-04-20 12:04:00,,0817.2,5.02,0.00,27.7,26.9,00.0,36.6,29.5,11.4,0000.0,0030.42,0009.29,0003.65
2022-04-20 12:05:00,,0817.3,5.00,0.00,27.7,26.9,00.0,36.6,29.5,11.3,0000.0,0030.79,0009.20,0003.66
2022-04-20 12:06:00,,0816.8,4.99,0.00,27.7,26.8,00.0,36.6,29.5,11.2,0000.0,0030.99,0009.14,0003.66
2022-04-20 12:07:00,,0816.8,5.00,0.00,27.7,26.8,00.0,36.6,29.5,11.3,0000.0,0029.91,0009.07,0003.65
2022-04-20 12:08:00,,0816.8,5.01,0.00,27.7,26.8,00.0,36.6,29.5,11.2,0000.0,0029.93,0009.12,0003.66
2022-04-20 12:09:00,,0817.1,4.99,0.00,27.7,26.8,00.0,36.6,29.4,11.2,0000.0,0030.52,0009.19,0003.66
2022-04-20 12:10:00,,0817.2,5.00,0.00,27.7,26.8,00.0,36.6,29.4,11.2,0000.0,0031.89,0009.28,0003.65
2022-04-20 12:11:00,,0817.2,5.00,0.00,27.7,26.8,00.0,36.6,29.4,11.2,0000.0,0031.60,0009.37,0003.64
2022-04-20 12:12:00,,0816.8,4.99,0.00,27.7,26.8,00.0,36.6,29.4,11.2,0000.0,0032.27,0009.34,0003.64
2022-04-20 12:13:00,,0816.8,4.99,0.00,27.6,26.8,00.0,36.6,29.4,11.3,0000.0,0032.67,0009.29,0003.63
2022-04-20 12:14:00,,0817.2,5.01,0.00,27.6,26.8,00.0,36.6,29.4,11.3,0000.0,0032.49,0009.21,0003.65
2022-04-20 12:15:00,,0817.0,4.99,0.00,27.6,26.8,00.0,36.6,29.4,11.3,0000.0,0032.19,0009.16,0003.66
2022-04-20 12:16:00,,0817.0,5.01,0.00,27.6,26.8,00.0,36.6,29.4,11.3,0000.0,0031.94,0009.22,0003.66
2022-04-20 12:17:00,,0816.8,5.00,0.00,27.6,26.7,00.0,36.6,29.4,11.3,0000.0,0031.41,0009.26,0003.66
2022-04-20 12:18:00,,0817.3,4.99,0.00,27.6,26.7,00.0,36.6,29.3,11.4,0000.0,0032.10,0009.25,0003.65
2022-04-20 12:19:00,,0817.3,4.99,0.00,27.6,26.7,00.0,36.6,29.3,11.4,0000.0,0032.40,0009.19,0003.64
2022-04-20 12:20:00,,0817.4,5.02,0.00,27.6,26.7,00.0,36.6,29.3,11.4,0000.0,0033.32,0009.08,0003.62
2022-04-20 12:21:00,,0817.0,4.99,0.00,27.6,26.7,00.0,36.6,29.3,11.4,0000.0,0032.36,0009.00,0003.61
2022-04-20 12:22:00,,0817.0,4.99,0.00,27.5,26.7,00.0,36.6,29.3,11.5,0000.0,0032.36,0008.84,0003.61
2022-04-20 12:23:00,,0817.0,5.01,0.00,27.5,26.7,00.0,36.5,29.3,11.5,0000.0,0031.96,0008.82,0003.63
2022-04-20 12:24:00,,0817.1,5.02,0.00,27.5,26.7,00.0,36.5,29.3,11.5,0000.0,0031.97,0008.71,0003.63
2022-04-20 12:25:00,,0817.3,4.98,0.00,27.5,26.7,00.0,36.5,29.3,11.5,0000.0,0032.16,0008.70,0003.63
2022-04-20 12:26:00,,0817.0,4.99,0.00,27.5,26.6,00.0,36.5,29.2,11.5,0000.0,0032.00,0008.75,0003.63
2022-04-20 12:27:00,,0817.1,5.02,0.00,27.5,26.6,00.0,36.5,29.2,11.5,0000.0,0031.61,0008.58,0003.62
2022-04-20 12:28:00,,0817.1,5.00,0.00,27.4,26.6,00.0,36.5,29.2,11.6,0000.0,0031.75,0008.48,0003.62
2022-04-20 12:29:00,,0817.1,4.99,0.00,27.4,26.5,00.0,36.5,29.2,11.6,0002.8,0031.14,0008.54,0003.63
2022-04-20 12:30:00,,0817.0,5.01,0.00,27.4,26.5,00.0,36.5,29.1,11.6,0003.2,0030.87,0008.49,0003.63
2022-04-20 12:31:00,,0817.0,4.99,0.00,27.4,26.5,00.0,36.5,29.1,11.6,0004.7,0029.75,0008.64,0003.65
2022-04-20 12:32:00,,0817.0,5.00,0.00,27.4,26.4,00.0,36.4,29.1,11.6,0003.7,0029.53,0008.69,0003.65
2022-04-20 12:33:00,,0817.1,4.99,0.00,27.3,26.4,00.0,36.4,29.0,11.6,0002.9,0028.93,0008.67,0003.64
2022-04-20 12:34:00,,0817.1,5.00,0.00,27.3,26.3,00.0,36.4,29.0,11.7,0000.9,0029.51,0008.68,0003.62
2022-04-20 12:35:00,,0817.1,5.00,0.00,27.3,26.2,00.0,36.4,28.9,11.7,0007.3,0029.26,0008.71,0003.62
2022-04-20 12:36:00,,0817.1,4.99,0.00,27.2,26.2,00.0,36.4,28.9,11.8,0012.3,0029.69,0008.74,0003.62
2022-04-20 12:37:00,,0817.2,5.02,0.00,27.2,26.1,00.0,36.3,28.9,11.8,0012.6,0030.41,0008.68,0003.60
2022-04-20 12:38:00,,0817.1,4.99,0.00,27.2,26.1,00.0,36.3,28.9,11.9,0012.0,0030.88,0008.76,0003.59
2022-04-20 12:39:00,,0817.1,4.99,0.00,27.2,26.1,00.0,36.3,28.8,12.0,0000.9,0030.03,0008.73,0003.57
2022-04-20 12:40:00,,0817.2,5.02,0.00,27.1,26.1,00.0,36.3,28.8,12.1,0000.0,0030.13,0008.60,0003.55
2022-04-20 12:41:00,,0817.2,5.00,0.00,27.1,26.1,00.0,36.3,28.8,12.1,0000.0,0029.85,0008.53,0003.52
2022-04-20 12:42:00,,0817.3,5.00,0.00,27.1,26.1,00.0,36.2,28.8,12.2,0000.0,0029.32,0008.37,0003.52
2022-04-20 12:43:00,,0817.4,5.00,0.00,27.1,26.1,00.0,36.2,28.8,12.3,0000.0,0029.21,0008.23,0003.50
2022-04-20 12:44:00,,0817.4,4.98,0.00,27.1,26.1,00.0,36.2,28.8,12.4,0000.0,0029.42,0008.21,0003.50
2022-04-20 12:45:00,,0817.4,5.01,0.00,27.0,26.1,00.0,36.2,28.7,12.5,0000.0,0028.89,0008.09,0003.48
2022-04-20 12:46:00,,0817.3,5.01,0.00,27.0,26.1,00.0,36.2,28.7,12.5,0000.0,0028.32,0007.99,0003.46
2022-04-20 12:47:00,,0817.3,4.99,0.00,27.0,26.0,00.0,36.1,28.7,12.6,0000.0,0027.48,0007.92,0003.42
2022-04-20 12:48:00,,0817.2,4.99,0.00,27.0,26.0,00.0,36.1,28.7,12.7,0000.0,0026.91,0007.81,0003.38
2022-04-20 12:49:00,,0817.2,5.02,0.00,27.0,25.9,00.0,36.1,28.7,12.8,0000.0,0025.89,0007.74,0003.34
2022-04-20 12:50:00,,0817.2,4.98,0.00,26.9,25.8,00.0,36.1,28.6,12.9,0000.0,0025.87,0007.71,0003.31
2022-04-20 12:51:00,,0817.2,5.01,0.00,26.9,25.8,00.0,36.1,28.6,13.0,0000.0,0025.56,0007.65,0003.29
2022-04-20 12:52:00,,0817.2,5.02,0.00,26.9,25.7,00.0,36.0,28.5,13.1,0000.0,0024.78,0007.53,0003.26
2022-04-20 12:53:00,,0817.2,4.99,0.00,26.8,25.6,00.0,36.0,28.5,13.1,0000.0,0024.27,0007.39,0003.20
2022-04-20 12:54:00,,0817.2,4.99,0.00,26.8,25.5,00.0,36.0,28.4,13.2,0000.0,0024.00,0007.35,0003.17
2022-04-20 12:55:00,,0817.4,5.01,0.00,26.7,25.5,00.0,35.9,28.4,13.3,0000.0,0022.88,0007.19,0003.12
2022-04-20 12:56:00,,0817.3,5.00,0.00,26.7,25.4,00.0,35.9,28.3,13.4,0000.0,0022.06,0007.06,0003.07
2022-04-20 12:57:00,,0817.3,4.99,0.00,26.6,25.3,00.0,35.9,28.3,13.4,0000.0,0021.91,0007.01,0003.00
2022-04-20 12:58:00,,0817.3,5.01,0.00,26.6,25.3,00.0,35.9,28.3,13.5,0000.0,0021.59,0006.92,0002.94
2022-04-20 12:59:00,,0817.4,4.98,0.00,26.6,25.3,00.0,35.8,28.2,13.5,0000.0,0020.48,0006.79,0002.90
